�������l�o���
Date,Time,MP-1(��Sv/h),MP-2(��Sv/h),MP-3(��Sv/h),MP-4(��Sv/h),MP-5(��Sv/h),MP-6(��Sv/h),MP-7(��Sv/h),MP-8(��Sv/h),����,����(m/s),���J
2022/11/16,00:00,0.578,0.834,0.528,1.070,0.736,0.337,0.596,0.560,�k��,6.5,��
2022/11/16,00:10,0.578,0.834,0.526,1.066,0.738,0.337,0.595,0.561,���k��,7.8,��
2022/11/16,00:20,0.578,0.836,0.527,1.066,0.737,0.336,0.596,0.560,���k��,7.3,��
2022/11/16,00:30,0.579,0.837,0.527,1.066,0.736,0.338,0.597,0.562,���k��,6.6,��
2022/11/16,00:40,0.580,0.835,0.527,1.065,0.734,0.338,0.595,0.560,���k��,7.3,��
2022/11/16,00:50,0.578,0.836,0.527,1.069,0.739,0.337,0.596,0.561,���k��,7.3,��
2022/11/16,01:00,0.579,0.836,0.527,1.069,0.737,0.337,0.595,0.560,��,7.6,��
2022/11/16,01:10,0.578,0.835,0.528,1.066,0.739,0.336,0.595,0.561,��,6.4,��
2022/11/16,01:20,0.582,0.835,0.527,1.070,0.736,0.337,0.597,0.560,��,7.8,��
2022/11/16,01:30,0.580,0.835,0.526,1.067,0.737,0.337,0.594,0.560,���k��,8.2,��
2022/11/16,01:40,0.580,0.836,0.526,1.070,0.737,0.339,0.596,0.562,���k��,9.2,��
2022/11/16,01:50,0.579,0.837,0.527,1.068,0.737,0.338,0.595,0.560,��,7.3,��
2022/11/16,02:00,0.579,0.835,0.526,1.066,0.736,0.337,0.595,0.561,��,8.5,��
2022/11/16,02:10,0.580,0.835,0.527,1.067,0.736,0.338,0.597,0.562,���k��,9.2,��
2022/11/16,02:20,0.580,0.837,0.529,1.071,0.736,0.337,0.597,0.560,�k��,7.0,��
2022/11/16,02:30,0.580,0.837,0.527,1.069,0.737,0.337,0.596,0.562,���k��,8.7,��
2022/11/16,02:40,0.578,0.837,0.527,1.069,0.735,0.337,0.596,0.562,���k��,8.5,��
2022/11/16,02:50,0.581,0.836,0.527,1.068,0.737,0.337,0.597,0.562,���k��,8.4,��
2022/11/16,03:00,0.580,0.837,0.528,1.071,0.736,0.336,0.596,0.562,���k��,8.4,��
2022/11/16,03:10,0.580,0.837,0.528,1.069,0.736,0.338,0.596,0.562,���k��,7.3,��
2022/11/16,03:20,0.579,0.838,0.528,1.067,0.736,0.337,0.598,0.561,���k��,6.0,��
2022/11/16,03:30,0.580,0.838,0.528,1.069,0.736,0.338,0.596,0.562,���k��,7.1,��
2022/11/16,03:40,0.580,0.837,0.525,1.068,0.738,0.338,0.597,0.561,���k��,6.7,��
2022/11/16,03:50,0.582,0.836,0.527,1.070,0.738,0.337,0.598,0.561,���k��,7.4,��
2022/11/16,04:00,0.579,0.837,0.525,1.069,0.736,0.336,0.597,0.561,�k��,7.4,��
2022/11/16,04:10,0.580,0.837,0.529,1.070,0.738,0.337,0.596,0.562,�k��,5.7,��
2022/11/16,04:20,0.581,0.838,0.528,1.070,0.736,0.337,0.597,0.562,���k��,9.6,��
2022/11/16,04:30,0.580,0.835,0.528,1.070,0.738,0.337,0.596,0.562,�k��,7.4,��
2022/11/16,04:40,0.581,0.837,0.529,1.072,0.739,0.338,0.596,0.563,�k��,8.0,��
2022/11/16,04:50,0.579,0.837,0.527,1.068,0.739,0.337,0.596,0.562,�k��,7.2,��
2022/11/16,05:00,0.581,0.838,0.527,1.071,0.740,0.337,0.598,0.563,���k��,7.4,��
2022/11/16,05:10,0.581,0.839,0.527,1.071,0.739,0.337,0.598,0.562,���k��,8.1,��
2022/11/16,05:20,0.579,0.837,0.526,1.071,0.739,0.337,0.596,0.561,���k��,9.2,��
2022/11/16,05:30,0.580,0.839,0.527,1.072,0.738,0.336,0.597,0.562,���k��,6.0,��
2022/11/16,05:40,0.581,0.837,0.528,1.068,0.737,0.338,0.596,0.563,���k��,9.7,��
2022/11/16,05:50,0.581,0.836,0.527,1.071,0.737,0.338,0.597,0.563,���k��,9.1,��
2022/11/16,06:00,0.579,0.837,0.528,1.071,0.738,0.337,0.596,0.562,�k��,7.0,��
2022/11/16,06:10,0.581,0.840,0.527,1.070,0.738,0.337,0.597,0.564,���k��,5.6,��
2022/11/16,06:20,0.581,0.838,0.526,1.070,0.738,0.338,0.597,0.561,���k��,5.8,��
2022/11/16,06:30,0.581,0.838,0.527,1.070,0.738,0.336,0.598,0.562,���k��,6.8,��
2022/11/16,06:40,0.581,0.838,0.527,1.071,0.739,0.335,0.599,0.563,�k��,8.7,��
2022/11/16,06:50,0.581,0.836,0.527,1.071,0.738,0.337,0.597,0.562,�k��,8.2,��
2022/11/16,07:00,0.581,0.838,0.527,1.069,0.739,0.336,0.596,0.562,���k��,7.2,��
2022/11/16,07:10,0.580,0.838,0.528,1.070,0.739,0.337,0.596,0.562,���k��,8.1,��
2022/11/16,07:20,0.582,0.838,0.527,1.072,0.739,0.336,0.596,0.563,�k��,8.8,��
2022/11/16,07:30,0.582,0.838,0.528,1.071,0.739,0.336,0.597,0.562,�k��,5.6,��
2022/11/16,07:40,0.581,0.840,0.528,1.069,0.737,0.337,0.597,0.563,�k��,8.2,��
2022/11/16,07:50,0.581,0.838,0.527,1.071,0.739,0.335,0.597,0.564,�k��,6.1,��
2022/11/16,08:00,0.581,0.838,0.529,1.070,0.738,0.334,0.596,0.561,�k��,6.6,��
2022/11/16,08:10,0.580,0.837,0.527,1.072,0.739,0.337,0.599,0.562,�k��,5.6,��
2022/11/16,08:20,0.580,0.837,0.527,1.072,0.739,0.337,0.597,0.562,�k��,4.9,��
2022/11/16,08:30,0.581,0.837,0.526,1.071,0.739,0.336,0.598,0.562,�k��,4.9,��
2022/11/16,08:40,0.582,0.835,0.528,1.071,0.739,0.337,0.598,0.562,�k��,4.0,��
2022/11/16,08:50,0.582,0.836,0.528,1.071,0.738,0.337,0.598,0.561,�k��,4.1,��
2022/11/16,09:00,0.582,0.838,0.529,1.071,0.740,0.336,0.596,0.563,�k�k��,4.4,��
2022/11/16,09:10,0.581,0.837,0.527,1.071,0.740,0.337,0.596,0.562,�k�k��,5.2,��
2022/11/16,09:20,0.581,0.837,0.528,1.074,0.739,0.336,0.598,0.560,�k��,6.2,��
2022/11/16,09:30,0.582,0.836,0.529,1.071,0.739,0.339,0.597,0.562,�k��,8.7,��
2022/11/16,09:40,0.583,0.836,0.529,1.071,0.739,0.337,0.597,0.562,�k��,8.7,��
2022/11/16,09:50,0.584,0.836,0.529,1.073,0.741,0.336,0.596,0.560,�k��,8.5,��
2022/11/16,10:00,0.583,0.837,0.528,1.071,0.741,0.336,0.596,0.562,�k��,7.4,��
2022/11/16,10:10,0.582,0.838,0.530,1.072,0.742,0.337,0.596,0.561,�k��,5.2,��
2022/11/16,10:20,0.581,0.839,0.529,1.070,0.740,0.337,0.596,0.560,���k��,4.8,��
2022/11/16,10:30,0.580,0.838,0.529,1.073,0.742,0.337,0.597,0.562,���k��,4.2,��
2022/11/16,10:40,0.583,0.838,0.529,1.073,0.740,0.337,0.597,0.562,���k��,3.2,��
2022/11/16,10:50,0.582,0.837,0.531,1.072,0.741,0.336,0.598,0.561,���k��,4.0,��
2022/11/16,11:00,0.584,0.841,0.530,1.070,0.742,0.336,0.596,0.561,�k��,3.6,��
2022/11/16,11:10,0.583,0.838,0.531,1.072,0.742,0.336,0.595,0.562,�k��,5.9,��
2022/11/16,11:20,0.584,0.841,0.529,1.070,0.741,0.336,0.596,0.561,�k�k��,4.8,��
2022/11/16,11:30,0.584,0.840,0.530,1.073,0.741,0.336,0.597,0.563,�k�k��,3.9,��
2022/11/16,11:40,0.582,0.842,0.532,1.071,0.741,0.336,0.597,0.564,�k��,3.6,��
2022/11/16,11:50,0.583,0.840,0.531,1.074,0.740,0.337,0.596,0.563,�k�k��,3.0,��
2022/11/16,12:00,0.584,0.840,0.531,1.073,0.741,0.336,0.597,0.564,�k�k��,2.9,��
2022/11/16,12:10,0.585,0.840,0.531,1.073,0.742,0.337,0.598,0.563,�k��,2.9,��
2022/11/16,12:20,0.584,0.841,0.533,1.073,0.744,0.339,0.597,0.562,�k�k��,3.7,��
2022/11/16,12:30,0.587,0.842,0.533,1.072,0.743,0.339,0.597,0.563,�k,4.0,��
2022/11/16,12:40,0.585,0.845,0.533,1.073,0.746,0.338,0.598,0.562,�k�k��,3.4,��
2022/11/16,12:50,0.587,0.843,0.532,1.073,0.745,0.340,0.596,0.560,�k�k��,4.9,��
2022/11/16,13:00,0.586,0.844,0.533,1.072,0.743,0.337,0.597,0.562,�k�k��,5.4,��
2022/11/16,13:10,0.584,0.843,0.532,1.073,0.743,0.337,0.596,0.560,�k��,6.0,��
2022/11/16,13:20,0.586,0.839,0.532,1.072,0.743,0.338,0.596,0.561,�k��,5.7,��
2022/11/16,13:30,0.583,0.839,0.531,1.074,0.743,0.339,0.596,0.561,�k��,4.3,��
2022/11/16,13:40,0.583,0.841,0.533,1.073,0.741,0.338,0.596,0.561,�k��,6.3,��
2022/11/16,13:50,0.584,0.841,0.533,1.072,0.743,0.338,0.596,0.561,�k��,4.9,��
2022/11/16,14:00,0.585,0.842,0.533,1.073,0.743,0.338,0.598,0.563,���k��,5.1,��
2022/11/16,14:10,0.587,0.842,0.532,1.074,0.745,0.337,0.597,0.562,�k��,4.0,��
2022/11/16,14:20,0.585,0.842,0.533,1.074,0.744,0.338,0.597,0.564,�k��,4.0,��
2022/11/16,14:30,0.585,0.841,0.532,1.075,0.745,0.338,0.596,0.564,�k��,4.0,��
2022/11/16,14:40,0.585,0.842,0.531,1.076,0.745,0.338,0.598,0.566,�k��,4.9,��
2022/11/16,14:50,0.583,0.843,0.532,1.073,0.746,0.338,0.598,0.565,�k��,3.6,��
2022/11/16,15:00,0.584,0.843,0.531,1.074,0.748,0.338,0.597,0.564,�k��,3.2,��
2022/11/16,15:10,0.584,0.843,0.533,1.072,0.746,0.338,0.597,0.563,�k��,4.1,�L
2022/11/16,15:20,0.585,0.842,0.533,1.074,0.746,0.339,0.597,0.565,�k��,3.5,�L
2022/11/16,15:30,0.584,0.848,0.532,1.075,0.747,0.339,0.596,0.563,�k��,4.7,�L
2022/11/16,15:40,0.586,0.846,0.533,1.074,0.745,0.337,0.598,0.564,�k��,4.7,�L
2022/11/16,15:50,0.584,0.847,0.534,1.076,0.747,0.338,0.597,0.563,�k��,4.5,�L
2022/11/16,16:00,0.586,0.846,0.533,1.076,0.748,0.338,0.598,0.564,�k��,2.3,��
2022/11/16,16:10,0.583,0.847,0.532,1.073,0.748,0.338,0.596,0.564,�k��,2.6,��
2022/11/16,16:20,0.584,0.846,0.532,1.074,0.746,0.337,0.598,0.563,���k��,2.2,��
2022/11/16,16:30,0.584,0.847,0.532,1.074,0.746,0.338,0.598,0.563,�k��,3.0,��
2022/11/16,16:40,0.583,0.844,0.532,1.076,0.744,0.338,0.598,0.562,�k��,2.9,��
2022/11/16,16:50,0.584,0.846,0.531,1.074,0.745,0.338,0.598,0.562,�k��,4.1,��
2022/11/16,17:00,0.585,0.848,0.532,1.075,0.746,0.338,0.598,0.561,�k��,3.8,��
2022/11/16,17:10,0.584,0.847,0.532,1.074,0.745,0.337,0.599,0.562,�k��,3.8,��
2022/11/16,17:20,0.584,0.846,0.533,1.073,0.744,0.336,0.598,0.562,�k��,3.7,��
2022/11/16,17:30,0.584,0.845,0.529,1.076,0.746,0.337,0.598,0.564,�k��,3.8,��
2022/11/16,17:40,0.584,0.846,0.532,1.075,0.744,0.338,0.596,0.561,�k��,3.2,��
2022/11/16,17:50,0.585,0.847,0.532,1.074,0.746,0.337,0.598,0.562,�k��,4.5,��
2022/11/16,18:00,0.583,0.844,0.532,1.075,0.747,0.337,0.597,0.561,���k��,3.7,��
2022/11/16,18:10,0.583,0.846,0.534,1.076,0.743,0.337,0.598,0.562,���k��,4.6,��
2022/11/16,18:20,0.585,0.845,0.531,1.078,0.746,0.338,0.597,0.563,�k��,4.8,��
2022/11/16,18:30,0.584,0.845,0.533,1.075,0.746,0.338,0.598,0.564,���k��,3.9,��
2022/11/16,18:40,0.584,0.847,0.532,1.073,0.746,0.337,0.597,0.562,���k��,4.5,��
2022/11/16,18:50,0.584,0.846,0.531,1.073,0.745,0.337,0.598,0.563,���k��,4.7,��
2022/11/16,19:00,0.584,0.848,0.532,1.073,0.746,0.336,0.598,0.562,���k��,4.9,��
2022/11/16,19:10,0.583,0.847,0.532,1.074,0.745,0.337,0.598,0.563,���k��,6.3,��
2022/11/16,19:20,0.584,0.845,0.532,1.074,0.745,0.338,0.598,0.563,���k��,7.2,��
2022/11/16,19:30,0.584,0.846,0.532,1.075,0.746,0.337,0.597,0.563,���k��,7.1,��
2022/11/16,19:40,0.584,0.846,0.533,1.075,0.745,0.337,0.597,0.562,��,7.6,��
2022/11/16,19:50,0.583,0.846,0.531,1.074,0.746,0.339,0.597,0.561,��,8.5,��
2022/11/16,20:00,0.584,0.847,0.532,1.076,0.747,0.338,0.598,0.562,��,6.5,��
2022/11/16,20:10,0.584,0.847,0.533,1.076,0.748,0.336,0.599,0.563,���k��,6.5,��
2022/11/16,20:20,0.581,0.847,0.533,1.074,0.746,0.337,0.599,0.563,��,7.8,��
2022/11/16,20:30,0.584,0.845,0.532,1.074,0.746,0.337,0.598,0.563,��,7.7,��
2022/11/16,20:40,0.583,0.845,0.532,1.075,0.746,0.339,0.598,0.563,��,6.8,��
2022/11/16,20:50,0.583,0.846,0.532,1.073,0.747,0.337,0.597,0.562,��,5.5,��
2022/11/16,21:00,0.583,0.846,0.531,1.074,0.745,0.338,0.598,0.561,���k��,7.4,��
2022/11/16,21:10,0.582,0.844,0.532,1.075,0.747,0.336,0.597,0.563,���k��,7.6,��
2022/11/16,21:20,0.583,0.845,0.532,1.075,0.747,0.338,0.599,0.562,���k��,7.6,��
2022/11/16,21:30,0.584,0.848,0.532,1.075,0.745,0.336,0.596,0.562,���k��,7.8,��
2022/11/16,21:40,0.585,0.847,0.531,1.075,0.745,0.337,0.598,0.563,��,6.8,��
2022/11/16,21:50,0.584,0.847,0.531,1.075,0.744,0.337,0.598,0.563,��,7.0,��
2022/11/16,22:00,0.585,0.844,0.531,1.074,0.745,0.337,0.597,0.563,��,6.5,��
2022/11/16,22:10,0.583,0.847,0.531,1.078,0.747,0.336,0.599,0.561,���k��,6.1,��
2022/11/16,22:20,0.582,0.846,0.531,1.074,0.747,0.337,0.598,0.562,���k��,7.0,��
2022/11/16,22:30,0.585,0.847,0.531,1.075,0.746,0.338,0.598,0.562,��,7.6,��
2022/11/16,22:40,0.583,0.844,0.531,1.074,0.744,0.335,0.600,0.562,��,6.7,��
2022/11/16,22:50,0.585,0.844,0.532,1.074,0.747,0.338,0.598,0.564,��,7.4,��
2022/11/16,23:00,0.584,0.845,0.532,1.076,0.747,0.336,0.599,0.562,���k��,8.7,��
2022/11/16,23:10,0.582,0.846,0.533,1.075,0.746,0.338,0.599,0.562,���k��,9.9,��
2022/11/16,23:20,0.584,0.844,0.532,1.076,0.747,0.337,0.600,0.563,���k��,10.3,��
2022/11/16,23:30,0.583,0.845,0.532,1.075,0.745,0.335,0.599,0.564,��,9.6,��
2022/11/16,23:40,0.584,0.847,0.530,1.075,0.746,0.337,0.597,0.565,���k��,8.8,��
2022/11/16,23:50,0.582,0.846,0.533,1.075,0.745,0.337,0.598,0.563,���k��,9.2,��
